Wetbulb
44.17 39.24 34.90 39.31 42.34 42.87 41.07 38.55 37.12 38.39 41.53 40.49 41.56 40.21 43.14 46.42 47.19 49.48 48.80 49.91 51.06 51.61 53.61 53.51 52.74 52.13 50.81 50.66 50.49 50.86 51.04 51.59 51.86 51.20 50.16 49.67 47.96 48.44 48.47 48.90 50.71 51.54 51.22 51.70
41.26 36.06 39.95 43.58 44.14 41.25 40.31 38.24 34.83 37.67 40.77 37.95 41.37 40.01 42.15 44.11 45.25 47.02 47.77 46.71 47.26 48.06 47.66 47.94 48.15 47.66 48.35 48.75 49.72 50.46 51.53 51.88 52.22 51.57 51.19 49.60 48.14 48.12 48.72 49.61 50.16 51.82 51.41 51.59
37.84 37.98 41.44 41.94 40.72 40.03 37.93 35.33 35.91 36.26 37.83 37.62 39.11 36.51 37.78 40.32 42.42 43.23 43.39 43.27 43.22 43.95 44.14 44.69 45.52 46.27 47.16 47.31 48.00 50.27 51.32 51.73 52.24 52.27 51.66 50.56 49.69 48.70 48.70 49.00 48.32 51.28 51.60 51.62
36.61 41.13 40.63 39.60 38.08 38.59 34.21 37.86 40.10 37.86 34.38 28.87 35.57 26.61 35.91 37.24 38.92 40.78 42.24 41.49 41.69 43.50 44.77 44.90 43.58 43.92 46.78 48.59 49.13 50.08 51.32 52.11 52.38 51.91 50.98 49.43 47.95 46.95 48.02 48.32 48.32 49.10 51.47 51.16
32.36 36.67 37.20 36.69 36.00 38.56 34.13 38.85 39.15 39.30 31.87 29.48 30.67 29.29 33.36 37.62 36.39 38.41 40.46 42.43 42.60 43.08 44.37 45.08 45.03 47.82 48.55 49.81 49.00 49.55 50.63 51.34 51.65 51.16 50.79 49.32 48.29 48.42 48.68 48.68 48.24 47.86 49.75 51.30
35.57 40.75 38.98 37.17 38.97 38.91 38.83 37.43 37.51 35.58 31.67 22.97 28.14 29.00 29.22 32.36 36.72 38.52 40.27 42.25 43.19 43.04 43.78 45.43 47.01 48.39 48.42 49.04 49.47 50.35 50.64 51.00 51.39 51.04 50.90 49.94 48.72 48.28 47.80 47.91 47.64 47.82 48.14 50.58
35.34 35.37 39.09 40.28 34.86 37.73 37.00 32.88 21.44 19.12 18.98 22.81 21.95 24.46 32.86 36.89 39.86 40.29 40.21 41.27 42.10 42.86 43.19 44.02 44.74 45.58 46.53 46.14 47.53 48.98 49.48 49.40 50.40 49.85 49.71 49.74 49.20 48.95 48.19 47.98 47.77 47.23 46.24 47.76
28.89 23.99 35.38 38.82 35.41 31.49 32.99 33.30 27.85 18.72 19.39 23.34 26.69 21.84 30.63 39.00 40.83 41.92 42.45 42.33 42.93 42.30 42.84 43.03 44.00 44.39 44.89 46.27 46.55 47.01 47.94 47.88 48.33 48.02 47.97 48.57 48.69 48.68 48.82 48.56 48.15 47.48 46.56 46.63
27.90 27.32 37.53 38.27 38.35 36.24 31.87 27.78 33.99 28.31 26.57 24.22 23.90 30.27 35.25 38.27 38.77 39.83 40.21 41.81 40.94 41.41 41.60 42.10 43.14 43.74 44.20 44.53 45.35 46.00 46.22 46.42 46.66 46.55 46.61 46.82 47.35 47.61 47.74 48.11 48.07 47.70 47.56 48.34
31.83 25.52 35.49 37.53 37.76 36.47 33.50 35.40 27.69 29.48 19.30 21.09 24.02 25.11 27.96 31.51 35.22 38.79 39.31 39.69 40.38 41.02 41.10 41.45 41.62 42.20 42.50 42.63 43.03 43.41 43.91 43.84 44.49 45.32 45.18 45.63 45.45 46.27 46.52 46.66 46.65 47.11 47.41 47.43
33.87 32.23 28.84 34.11 31.72 30.72 30.54 29.52 30.69 31.19 28.35 23.30 20.76 25.61 33.81 32.08 36.93 37.21 38.85 40.92 40.28 40.28 39.84 40.15 40.77 41.56 42.13 42.33 42.04 42.09 42.40 42.55 42.78 43.28 43.41 43.38 44.12 45.30 45.59 45.38 45.88 46.32 46.78 47.01
33.87 33.09 24.62 29.09 34.94 36.86 33.99 32.88 32.97 25.93 26.07 23.80 22.98 23.91 36.45 38.68 39.00 39.86 40.05 41.61 40.85 40.60 39.96 40.15 40.56 40.86 40.75 40.54 40.50 40.35 40.93 41.00 41.81 42.12 42.11 42.27 42.99 43.42 43.08 43.62 44.78 45.82 45.70 46.58
35.01 31.44 22.82 24.48 29.93 33.63 30.85 33.37 33.98 32.98 30.40 27.12 22.61 26.91 37.63 39.67 39.50 40.79 39.20 40.26 40.58 40.20 39.72 39.90 40.08 39.90 39.65 39.32 39.45 39.59 39.89 40.08 41.15 41.36 40.90 41.00 41.28 41.70 41.72 42.08 43.02 44.37 45.09 45.41
38.15 32.74 28.78 24.92 26.36 32.31 27.86 31.67 32.95 29.91 24.12 25.52 24.65 27.07 32.23 35.59 37.76 39.56 39.97 40.39 40.03 39.74 40.09 39.47 38.88 38.65 38.65 39.25 39.04 38.92 39.20 39.85 40.00 39.92 39.97 39.87 40.28 40.69 40.87 41.77 43.01 43.74 44.74 44.73
35.42 28.51 29.19 31.83 31.94 32.10 32.30 32.48 32.13 26.25 30.22 25.96 28.79 31.19 35.01 35.84 37.27 39.07 40.78 41.07 40.97 40.15 39.55 39.53 38.07 37.35 37.67 37.83 38.33 38.76 38.93 39.16 39.20 38.65 38.90 39.23 39.97 40.49 40.65 41.53 42.61 43.50 43.87 44.33
35.71 27.97 28.94 25.83 31.76 30.68 28.37 31.27 32.40 32.68 32.55 31.46 32.04 31.53 35.03 38.16 39.40 39.59 40.49 40.17 39.50 38.73 39.55 38.97 38.68 38.38 38.03 38.13 37.71 38.57 38.23 38.28 38.92 38.22 38.57 39.64 39.74 39.71 39.65 40.48 41.32 41.76 42.06 42.53
32.50 29.70 27.09 24.31 27.44 26.82 23.48 29.14 31.05 30.94 32.80 33.52 27.73 32.35 34.74 35.35 38.50 37.78 38.17 38.43 37.93 38.04 37.75 37.59 37.32 37.45 37.56 37.13 38.27 37.17 38.23 38.87 38.23 38.03 38.78 39.22 39.39 38.97 38.89 39.54 39.86 40.11 40.15 40.75
32.13 30.44 28.60 23.61 24.49 18.06 28.46 32.62 32.60 32.18 34.01 35.17 34.82 35.03 36.48 36.57 36.73 37.44 37.80 36.57 36.76 37.39 37.39 37.41 36.89 37.35 37.81 38.29 38.27 38.00 38.58 38.77 38.73 38.05 37.88 38.11 37.99 38.04 38.49 38.13 37.99 37.76 38.32 38.37
34.54 31.51 25.44 22.44 21.31 27.24 27.64 28.70 28.74 28.61 28.48 34.42 34.06 35.09 36.89 37.07 35.30 33.75 36.72 36.25 35.14 35.26 36.21 36.60 37.09 37.33 37.24 37.27 36.91 36.05 36.06 36.36 37.83 37.61 37.30 37.62 37.33 36.88 37.19 36.94 36.72 37.25 37.30 37.24
33.52 32.66 27.50 24.55 20.79 20.93 28.17 31.60 34.12 32.71 23.94 34.10 34.73 35.46 35.06 34.38 27.84 31.60 34.97 36.30 36.12 36.74 36.78 36.26 36.16 36.70 35.70 35.11 35.28 34.42 34.43 34.34 34.51 35.87 36.75 37.77 38.08 37.35 36.68 36.46 36.33 37.36 37.69 38.64
26.03 26.75 23.92 23.84 21.89 26.41 32.43 33.81 33.99 21.96 26.55 33.48 33.77 33.74 35.02 31.84 32.52 33.94 35.79 35.93 36.66 36.62 35.86 35.22 34.39 34.48 35.06 35.69 35.05 33.81 33.90 33.59 35.44 36.28 36.28 36.57 37.47 36.74 36.10 35.82 36.10 36.14 36.04 36.46
26.92 24.84 24.38 25.48 23.04 20.69 34.47 32.45 28.35 32.15 33.83 34.74 35.40 35.75 36.68 34.41 35.01 35.16 35.82 35.89 35.99 35.08 34.77 34.80 33.70 33.75 34.51 34.66 33.42 32.24 31.80 34.21 34.82 34.96 34.99 34.96 35.24 36.53 37.47 35.27 34.82 34.91 34.67 34.10
25.49 31.07 28.84 29.79 29.35 34.66 35.28 34.54 35.86 36.07 35.28 35.31 35.05 35.45 36.51 35.41 34.86 35.47 35.29 35.34 34.35 34.49 34.24 34.62 33.20 32.90 33.16 33.52 33.08 31.48 32.54 33.82 33.82 33.27 33.18 33.46 34.41 34.82 35.04 34.05 34.32 34.72 34.30 33.46
29.84 32.66 29.51 30.11 33.11 33.84 35.25 36.28 36.51 36.23 34.91 36.85 36.71 36.24 36.30 34.85 35.25 34.97 35.24 33.84 33.38 33.86 33.56 33.88 32.72 31.80 31.65 32.84 33.36 32.22 32.58 33.45 33.02 31.92 32.10 32.78 32.78 34.46 33.72 34.69 34.94 33.80 33.46 33.22
30.05 31.77 30.56 30.02 33.25 33.45 34.58 35.09 36.08 35.97 35.81 35.80 35.93 35.69 35.51 35.40 34.71 34.49 33.23 32.69 32.79 32.73 32.75 32.28 31.05 30.59 31.07 31.65 31.64 32.24 32.68 32.48 32.05 31.92 32.00 32.12 33.30 32.59 32.80 33.34 32.78 32.43 33.85 35.23
31.27 30.65 29.31 29.01 33.89 33.82 32.60 34.19 36.95 34.63 34.87 35.06 34.55 34.01 34.83 34.98 33.55 33.22 32.25 32.74 32.08 31.68 32.56 31.77 31.70 30.89 30.75 31.01 30.96 31.63 32.51 31.88 30.94 30.92 31.42 31.23 31.57 30.95 32.09 31.11 31.35 37.00 38.90 39.50
MSLP
1015.12 1013.82 1012.89 1012.33 1012.11 1011.78 1011.68 1011.74 1012.33 1012.68 1013.03 1013.27 1013.56 1014.04 1014.26 1014.37 1014.34 1014.47 1014.73 1014.90 1015.34 1015.65 1015.85 1016.56 1017.25 1017.91 1018.42 1018.74 1019.05 1019.32 1019.67 1019.86 1020.02 1020.16 1020.25 1020.21 1020.38 1020.25 1020.26 1020.19 1020.04 1020.01 1019.95 1019.88
1014.28 1013.96 1013.66 1012.54 1012.11 1012.24 1012.06 1012.09 1013.15 1013.71 1013.60 1013.83 1013.73 1014.29 1014.35 1014.67 1014.83 1014.77 1015.05 1015.21 1015.36 1015.59 1016.16 1016.67 1017.37 1017.95 1018.45 1018.86 1019.06 1019.31 1019.52 1019.70 1019.90 1020.08 1020.14 1020.27 1020.46 1020.46 1020.31 1020.09 1019.97 1019.83 1019.84 1019.90
1014.46 1014.75 1014.07 1013.13 1012.91 1012.84 1012.77 1013.03 1013.31 1013.85 1014.49 1014.32 1014.22 1015.02 1015.13 1015.13 1015.19 1015.30 1015.47 1015.60 1015.70 1015.96 1016.37 1016.88 1017.44 1017.95 1018.36 1018.83 1019.02 1019.22 1019.37 1019.62 1019.80 1019.95 1020.11 1020.31 1020.45 1020.48 1020.49 1020.17 1020.03 1019.79 1019.73 1019.76
1015.39 1014.91 1014.27 1013.89 1014.12 1014.08 1014.10 1014.07 1013.65 1014.76 1015.57 1015.82 1015.60 1015.93 1015.41 1015.49 1015.79 1015.92 1016.03 1016.12 1016.24 1016.47 1016.80 1017.22 1017.61 1018.06 1018.48 1018.82 1018.96 1019.09 1019.32 1019.59 1019.75 1019.87 1020.11 1020.44 1020.57 1020.58 1020.30 1019.98 1019.83 1019.71 1019.48 1019.50
1016.59 1015.95 1015.48 1015.25 1015.85 1015.36 1015.57 1015.07 1015.11 1016.05 1017.24 1017.27 1017.07 1016.97 1015.75 1015.56 1016.18 1016.23 1016.36 1016.50 1016.72 1016.92 1017.22 1017.74 1018.05 1018.31 1018.52 1018.90 1019.24 1019.32 1019.43 1019.55 1019.64 1019.78 1020.01 1020.28 1020.50 1020.26 1019.93 1019.76 1019.63 1019.49 1019.25 1019.09
1016.95 1016.85 1016.96 1017.00 1016.64 1016.00 1015.82 1015.93 1016.66 1017.63 1018.84 1019.51 1018.66 1018.03 1017.06 1016.17 1015.78 1016.25 1016.65 1016.93 1017.18 1017.34 1017.64 1017.94 1018.27 1018.48 1018.86 1019.11 1019.34 1019.39 1019.48 1019.55 1019.53 1019.67 1019.90 1020.07 1020.22 1020.14 1019.98 1019.79 1019.63 1019.31 1019.07 1018.94
1017.37 1017.53 1017.64 1017.51 1017.20 1016.90 1016.69 1017.05 1018.49 1019.52 1020.04 1020.49 1019.80 1019.15 1017.08 1016.23 1015.70 1015.99 1016.79 1017.31 1017.51 1017.60 1017.85 1018.20 1018.48 1018.73 1019.01 1019.16 1019.30 1019.39 1019.43 1019.48 1019.39 1019.49 1019.62 1019.66 1019.67 1019.65 1019.70 1019.58 1019.41 1019.23 1019.01 1018.78
1017.76 1018.37 1018.17 1018.12 1018.01 1017.78 1017.40 1017.73 1018.43 1019.39 1020.48 1020.80 1020.38 1018.87 1017.27 1016.69 1016.56 1016.60 1016.91 1017.43 1017.74 1017.91 1018.17 1018.51 1018.72 1018.98 1019.26 1019.35 1019.41 1019.45 1019.47 1019.49 1019.41 1019.41 1019.41 1019.36 1019.35 1019.33 1019.25 1019.18 1019.03 1018.89 1018.78 1018.55
1017.55 1018.39 1018.57 1018.46 1018.37 1018.30 1017.79 1017.93 1018.12 1018.81 1019.44 1019.90 1019.26 1018.39 1017.74 1017.31 1017.39 1017.38 1017.58 1017.82 1018.03 1018.23 1018.46 1018.78 1018.97 1019.25 1019.49 1019.57 1019.63 1019.68 1019.69 1019.70 1019.58 1019.52 1019.43 1019.37 1019.23 1019.15 1019.03 1018.86 1018.75 1018.60 1018.42 1018.22
1017.19 1018.22 1018.62 1018.58 1018.61 1018.21 1017.93 1017.97 1018.22 1018.69 1019.66 1019.92 1019.06 1018.20 1017.46 1017.64 1017.59 1017.59 1017.76 1018.02 1018.26 1018.52 1018.89 1019.24 1019.39 1019.61 1019.73 1019.79 1019.85 1019.84 1019.79 1019.91 1019.82 1019.65 1019.53 1019.36 1019.20 1019.04 1018.82 1018.68 1018.58 1018.44 1018.17 1017.97
1017.16 1017.53 1018.86 1018.70 1018.49 1018.20 1018.20 1017.92 1018.06 1018.43 1019.02 1019.46 1019.14 1017.89 1016.54 1016.64 1016.97 1017.42 1017.78 1018.09 1018.50 1018.98 1019.21 1019.53 1019.67 1019.87 1019.95 1020.00 1020.07 1020.16 1020.20 1020.23 1020.22 1019.98 1019.75 1019.52 1019.29 1019.03 1018.76 1018.56 1018.30 1018.10 1017.91 1017.76
1017.51 1017.76 1018.39 1018.55 1018.43 1018.31 1018.26 1018.01 1017.83 1018.67 1019.33 1019.48 1019.19 1017.56 1016.41 1016.25 1016.69 1017.15 1017.61 1017.98 1018.53 1018.85 1019.25 1019.57 1019.80 1020.05 1020.25 1020.33 1020.41 1020.50 1020.56 1020.63 1020.52 1020.30 1020.03 1019.73 1019.28 1018.86 1018.66 1018.48 1018.25 1017.90 1017.67 1017.43
1017.82 1017.75 1018.24 1018.55 1018.70 1018.39 1018.29 1017.97 1017.97 1018.27 1018.85 1019.09 1019.07 1017.46 1016.49 1016.16 1016.60 1017.06 1017.58 1018.02 1018.51 1018.89 1019.35 1019.66 1019.89 1020.19 1020.49 1020.71 1020.74 1020.80 1020.83 1020.86 1020.65 1020.37 1020.13 1019.80 1019.52 1019.15 1018.89 1018.68 1018.33 1017.98 1017.65 1017.30
1018.19 1017.72 1017.62 1017.66 1017.44 1017.42 1017.84 1017.76 1018.01 1018.46 1018.97 1018.30 1017.57 1017.07 1016.76 1016.71 1016.86 1017.11 1017.57 1018.04 1018.57 1018.90 1019.31 1019.78 1020.20 1020.49 1020.75 1020.92 1021.06 1021.12 1021.10 1020.96 1020.84 1020.69 1020.37 1020.13 1019.69 1019.45 1019.11 1018.74 1018.37 1017.99 1017.61 1017.34
1018.21 1018.05 1017.68 1017.44 1017.31 1017.44 1017.41 1017.50 1017.74 1018.08 1017.59 1017.57 1016.60 1016.27 1015.55 1015.70 1016.22 1016.78 1017.35 1017.90 1018.43 1018.91 1019.26 1019.77 1020.30 1020.66 1020.87 1021.19 1021.26 1021.31 1021.41 1021.26 1021.03 1020.91 1020.61 1020.23 1019.86 1019.50 1019.21 1018.80 1018.42 1018.06 1017.70 1017.38
1018.07 1018.14 1017.93 1017.70 1017.36 1017.72 1017.68 1017.29 1017.10 1017.05 1016.91 1016.65 1016.09 1015.40 1014.66 1014.85 1015.62 1016.45 1017.12 1017.78 1018.32 1018.88 1019.25 1019.76 1020.27 1020.73 1021.05 1021.38 1021.38 1021.42 1021.38 1021.27 1020.95 1020.92 1020.61 1020.28 1019.96 1019.65 1019.37 1018.92 1018.56 1018.16 1017.72 1017.32
1018.42 1018.27 1018.29 1018.05 1017.80 1017.57 1017.15 1016.03 1016.14 1015.89 1015.29 1015.32 1015.40 1014.43 1014.18 1014.89 1015.34 1016.04 1016.95 1017.60 1018.35 1019.01 1019.49 1019.92 1020.35 1020.71 1020.97 1021.20 1021.11 1021.22 1021.17 1020.86 1020.86 1020.76 1020.53 1020.29 1020.08 1019.87 1019.56 1019.08 1018.65 1018.26 1017.88 1017.43
1018.66 1018.92 1018.76 1018.60 1018.13 1017.34 1015.01 1015.12 1015.19 1015.22 1014.93 1014.76 1014.65 1014.70 1015.10 1015.42 1015.66 1016.17 1016.65 1017.49 1018.38 1019.02 1019.54 1019.95 1020.31 1020.65 1020.88 1021.02 1021.23 1021.33 1021.21 1021.04 1020.82 1020.73 1020.66 1020.44 1020.22 1019.98 1019.49 1019.12 1018.84 1018.43 1017.99 1017.67
1019.09 1019.11 1019.27 1019.13 1018.38 1016.33 1015.35 1015.29 1015.21 1014.92 1014.45 1013.90 1014.21 1014.80 1015.29 1015.97 1016.67 1017.39 1017.66 1018.17 1018.97 1019.42 1019.79 1020.22 1020.61 1020.83 1020.97 1021.14 1021.28 1021.31 1021.23 1021.15 1021.07 1021.09 1020.97 1020.71 1020.32 1019.97 1019.60 1019.29 1018.92 1018.46 1018.06 1017.69
1019.67 1019.65 1019.81 1019.41 1018.83 1017.14 1015.61 1015.49 1015.30 1015.35 1015.03 1014.32 1014.12 1014.52 1015.38 1016.45 1017.74 1017.95 1018.16 1018.72 1019.35 1019.85 1020.27 1020.51 1020.60 1020.73 1020.86 1021.04 1021.20 1021.25 1021.19 1021.19 1021.25 1021.20 1020.99 1020.70 1020.43 1020.12 1019.80 1019.33 1018.94 1018.38 1017.96 1017.53
1019.85 1019.94 1019.62 1019.33 1018.46 1016.66 1015.40 1015.34 1015.53 1015.82 1015.46 1014.72 1014.88 1015.23 1015.93 1017.01 1017.45 1018.00 1018.62 1019.19 1019.53 1020.05 1020.39 1020.48 1020.52 1020.75 1020.92 1021.11 1021.26 1021.48 1021.42 1021.38 1021.29 1021.10 1020.84 1020.52 1020.18 1019.98 1019.73 1019.34 1018.88 1018.40 1017.92 1017.48
1018.40 1018.85 1018.94 1018.84 1018.00 1016.56 1015.21 1015.69 1015.81 1015.24 1015.11 1015.17 1015.18 1015.45 1016.19 1017.13 1017.96 1018.44 1018.86 1019.33 1019.65 1019.99 1020.35 1020.81 1021.12 1021.14 1021.13 1021.16 1021.17 1021.30 1021.34 1021.17 1021.10 1020.99 1020.78 1020.44 1020.08 1019.83 1019.40 1019.07 1018.69 1018.33 1018.09 1017.78
1017.63 1016.90 1017.09 1016.82 1015.74 1014.96 1014.82 1014.74 1014.82 1014.92 1015.07 1015.39 1015.70 1015.94 1016.51 1017.45 1018.09 1018.53 1019.01 1019.44 1019.76 1020.08 1020.36 1020.52 1020.84 1021.08 1021.09 1021.15 1021.22 1021.33 1021.12 1020.91 1020.85 1020.82 1020.71 1020.30 1019.85 1019.54 1019.27 1019.12 1018.72 1018.30 1017.93 1017.64
1016.75 1016.38 1016.42 1016.02 1014.66 1014.74 1014.81 1014.71 1014.87 1015.16 1015.37 1015.35 1015.70 1016.31 1016.77 1017.51 1018.03 1018.63 1019.08 1019.43 1019.78 1020.17 1020.38 1020.59 1020.87 1021.10 1021.23 1021.16 1021.21 1021.17 1020.91 1020.68 1020.80 1020.82 1020.57 1020.22 1019.98 1019.66 1019.18 1018.77 1018.46 1018.30 1017.90 1017.56
1016.44 1016.30 1015.92 1015.54 1014.75 1014.65 1014.66 1014.65 1014.90 1015.39 1015.74 1015.97 1016.34 1016.76 1017.21 1017.58 1018.26 1018.73 1019.26 1019.67 1020.01 1020.31 1020.51 1020.65 1020.92 1021.12 1021.18 1021.12 1021.09 1020.93 1020.69 1020.61 1020.77 1020.51 1020.24 1020.00 1019.80 1019.61 1019.26 1018.73 1018.28 1017.99 1017.49 1017.36
1015.58 1015.21 1015.23 1014.63 1014.43 1014.38 1014.61 1014.56 1014.84 1015.47 1015.98 1016.48 1016.95 1017.43 1017.73 1017.93 1018.56 1018.93 1019.47 1019.90 1020.22 1020.43 1020.55 1020.73 1020.80 1020.90 1020.93 1020.93 1020.84 1020.62 1020.59 1020.49 1020.38 1020.23 1020.03 1019.76 1019.48 1019.24 1019.05 1018.58 1018.10 1017.57 1017.15 1016.81
Wind_Speed
9 4 5 8 8 6 8 7 8 8 3 4 9 8 8 6 3 7 4 6 8 6 7 8 8 8 6 4 4 4 4 5 3 2 1 2 1 2 2 2 4 4 4 5
4 5 8 2 7 3 6 10 8 7 4 2 8 7 8 7 5 4 5 5 7 7 8 8 7 7 5 4 6 5 5 4 3 1 1 1 1 2 2 3 4 4 2 4
5 4 7 3 5 4 4 1 6 8 3 3 6 2 6 2 5 3 3 3 5 7 6 6 6 8 7 4 4 5 5 4 3 3 1 1 2 2 2 2 2 2 2 4
5 3 3 1 6 7 4 9 9 12 6 3 4 5 7 8 7 6 6 4 5 7 6 5 3 4 5 5 3 4 4 4 3 2 1 3 3 3 3 2 2 4 5 5
2 7 10 10 5 6 2 5 5 7 5 3 2 6 3 11 7 7 7 6 7 7 7 7 5 5 6 5 3 2 4 3 3 2 2 2 4 3 3 3 4 4 5 6
4 1 5 4 5 4 4 7 8 4 4 4 2 5 5 5 7 8 7 7 7 6 7 8 6 6 5 4 3 2 3 3 4 3 3 5 6 6 4 4 4 4 3 3
4 5 3 4 1 3 2 3 4 6 4 5 4 4 5 4 5 10 10 8 7 6 6 6 7 5 5 4 1 1 3 3 3 2 4 6 6 6 7 6 4 4 3 3
3 2 5 5 4 1 2 5 5 6 4 4 0 6 5 6 7 7 9 8 6 7 6 7 6 5 6 6 5 5 5 4 4 4 5 5 5 4 4 5 4 4 3 4
3 2 2 2 3 3 3 1 2 3 2 4 5 2 1 5 5 6 7 7 7 7 6 6 7 6 5 5 5 4 4 4 5 5 5 6 5 5 5 7 5 4 5 3
2 4 3 3 3 2 2 2 3 3 3 3 4 3 7 9 9 8 8 8 7 6 7 6 6 5 4 4 3 5 5 5 5 5 5 4 5 6 5 5 6 6 6 5
3 5 1 1 3 1 0 1 1 1 3 5 2 7 2 10 10 10 8 8 7 7 6 5 4 4 4 4 5 5 6 6 6 7 6 7 7 7 6 5 6 6 6 6
2 2 3 2 3 4 3 4 1 5 3 1 4 8 3 7 9 9 8 8 7 8 6 5 4 3 4 4 5 5 6 6 6 6 6 7 7 7 7 6 7 7 7 6
3 2 3 3 2 2 4 4 3 4 2 4 6 7 1 4 8 9 9 7 7 7 6 4 3 3 4 5 5 6 6 6 6 6 6 7 7 7 7 7 7 7 7 7
3 3 2 6 3 2 4 5 6 5 3 4 6 2 4 4 6 8 7 6 7 7 6 4 3 4 5 5 5 5 6 6 6 6 7 7 7 7 7 7 7 7 7 7
2 2 1 5 2 2 4 6 9 8 9 6 1 5 5 12 12 9 8 7 7 7 7 4 3 3 3 5 5 5 5 6 6 6 6 7 7 7 7 7 7 7 7 6
3 2 1 4 3 3 7 9 9 11 12 11 11 13 4 6 8 8 7 7 5 5 6 6 5 5 5 4 4 5 5 5 4 6 6 6 6 7 7 7 7 7 7 7
2 2 1 3 1 4 8 12 15 6 5 11 9 7 1 6 9 10 9 9 7 7 6 6 4 4 2 1 2 3 5 4 4 5 6 6 6 7 7 7 7 7 7 7
2 2 2 3 1 4 6 4 3 5 8 10 5 2 4 5 3 4 6 7 8 7 6 6 4 3 2 2 4 5 6 5 5 6 6 6 6 6 7 7 7 7 6 7
2 2 2 3 4 9 3 2 3 4 5 6 7 5 6 8 6 4 8 7 7 7 5 4 4 3 2 3 4 5 6 6 6 6 6 6 6 7 7 7 7 7 6 6
3 2 1 2 3 6 1 3 1 2 5 5 2 7 8 7 4 4 7 7 7 6 4 3 2 1 2 3 3 4 4 5 5 6 7 7 7 7 7 7 7 5 5 7
3 2 5 5 4 8 4 6 2 2 5 2 1 2 7 5 3 7 8 6 5 4 5 2 2 2 1 2 3 4 5 5 5 6 6 6 6 6 7 7 5 6 6 6
7 6 5 4 5 10 7 4 5 2 2 2 3 2 7 9 7 6 7 7 6 6 4 3 2 2 2 0 2 4 5 5 4 6 6 7 7 6 6 6 5 6 6 7
4 6 5 8 6 2 8 4 4 1 4 5 5 3 7 8 5 7 6 6 5 5 3 3 2 3 4 2 2 4 5 5 5 6 7 6 7 6 5 7 6 6 5 5
4 3 3 2 4 6 7 6 4 4 3 5 5 6 5 6 7 6 6 5 5 3 2 2 2 3 4 4 4 5 6 5 5 6 7 6 6 7 6 5 4 4 4 4
3 5 5 5 7 6 7 6 7 5 4 6 5 5 5 7 5 5 5 5 4 3 2 1 1 2 4 4 5 6 6 5 5 6 6 6 4 5 6 6 5 4 6 5
6 7 6 5 3 3 2 2 5 8 7 7 6 5 4 4 7 5 6 4 3 2 0 1 3 3 5 5 6 6 6 6 5 5 5 5 4 4 5 5 5 9 10 15
Wind_Direction
235 252 183 178 188 179 149 211 152 105 102 183 185 144 156 154 234 143 189 153 161 175 157 130 137 148 160 152 149 159 173 203 184 248 285 357 353 342 324 5 346 320 333 325
86 35 354 179 163 335 263 219 104 66 65 55 184 161 136 149 201 168 174 202 179 164 134 140 153 145 148 194 178 185 198 204 184 191 280 92 15 310 265 266 261 266 293 316
92 4 310 298 133 214 20 54 169 127 136 245 106 275 143 119 99 73 13 21 57 70 53 58 140 161 154 185 189 194 187 206 196 191 58 308 276 297 302 284 290 312 312 277
46 317 301 288 64 349 70 324 89 122 99 165 72 245 176 152 168 186 168 196 157 122 106 77 78 109 140 174 205 168 168 182 232 199 199 252 243 269 258 249 242 269 250 247
340 15 8 49 2 330 129 288 78 92 81 65 220 73 276 136 172 181 161 131 106 105 110 113 96 97 105 113 156 194 204 218 238 244 235 259 290 278 282 285 265 266 259 234
96 95 45 15 5 8 192 87 55 71 104 42 351 113 260 184 188 151 134 134 138 125 124 119 126 143 135 138 155 193 240 256 251 214 245 254 261 275 290 290 291 282 271 244
27 30 114 16 19 240 302 100 24 18 19 215 292 57 258 122 25 135 145 150 140 165 122 133 128 108 100 87 79 234 223 262 266 220 246 251 259 264 266 276 272 281 283 279
126 343 355 353 29 292 74 132 144 168 178 215 281 228 248 98 77 75 109 134 155 127 112 94 91 84 79 53 29 24 10 355 338 317 309 304 289 269 260 263 278 272 262 268
120 69 152 76 346 353 234 200 238 107 42 70 204 144 79 127 142 152 153 164 155 124 108 90 81 65 61 53 40 29 11 351 349 338 323 305 297 293 275 270 269 266 265 257
64 80 347 116 236 223 337 245 76 4 95 252 272 227 225 188 186 181 170 159 123 99 87 84 82 78 63 57 35 16 14 3 336 338 328 315 313 302 292 286 276 271 270 268
5 115 218 311 219 123 7 300 261 103 131 176 189 261 243 195 177 171 174 142 131 126 120 111 99 84 73 40 24 9 6 0 355 346 331 330 318 310 299 289 279 269 270 269
62 116 136 97 72 27 329 311 258 123 237 177 151 271 352 185 169 153 149 142 150 148 140 128 108 74 54 36 16 13 4 5 348 332 332 324 316 315 317 311 299 286 273 268
4 232 88 346 353 143 247 197 276 76 43 209 138 264 14 132 159 155 151 163 161 154 152 144 103 65 42 25 15 9 7 349 336 332 331 326 324 328 329 320 317 318 313 303
337 306 198 180 172 125 196 199 203 151 129 228 217 185 188 198 190 168 168 159 168 163 166 137 65 51 40 28 14 5 350 347 335 336 329 330 329 324 316 311 312 309 306 305
263 260 27 280 180 238 233 199 195 199 221 195 291 202 212 195 190 192 185 186 167 172 160 159 98 60 42 27 11 359 346 339 338 332 339 326 323 327 323 322 317 315 313 302
161 270 2 273 162 268 276 249 232 214 233 253 263 275 153 119 156 164 164 152 168 170 142 97 71 55 40 18 3 341 339 328 339 339 329 331 341 338 328 325 319 316 315 314
253 226 127 275 149 297 294 236 219 222 207 210 221 221 198 169 163 161 170 161 167 147 116 107 109 106 87 14 353 354 319 317 345 335 343 346 340 332 325 321 323 326 325 326
213 268 37 265 35 257 236 94 61 230 250 225 256 331 35 40 109 114 124 140 140 142 148 127 112 93 68 17 27 354 331 350 349 8 350 341 332 324 322 326 327 325 323 326
221 271 239 201 216 283 174 211 172 171 285 223 218 189 153 93 65 28 78 80 104 99 94 96 85 73 5 40 18 355 339 352 3 354 335 326 324 320 319 322 322 316 317 311
342 286 158 151 236 247 111 135 45 113 287 345 176 167 138 112 164 241 132 112 112 119 117 115 108 153 71 39 20 353 341 340 356 338 327 325 318 317 315 312 311 295 296 289
169 211 204 233 253 288 150 147 178 164 242 98 58 181 137 143 168 132 106 98 112 122 125 101 102 134 108 56 24 349 341 340 333 321 314 307 305 309 303 301 298 298 305 306
171 162 193 191 219 261 135 87 184 197 93 127 126 134 127 120 126 130 130 138 143 142 132 98 25 9 350 2 41 326 319 296 316 308 304 301 305 308 308 314 303 313 316 314
224 195 190 191 220 129 192 115 133 84 171 174 138 108 123 130 146 148 152 147 148 139 129 117 75 340 319 323 20 324 296 323 310 311 301 303 304 303 310 307 312 315 309 303
251 145 227 39 272 190 204 239 179 191 251 165 137 136 125 145 146 152 141 135 137 140 110 81 0 331 321 333 326 289 297 303 307 301 300 300 305 311 311 301 294 301 304 306
180 125 202 255 279 283 247 227 185 170 109 101 89 124 152 136 142 138 129 126 126 122 120 115 281 288 289 302 301 295 298 302 290 289 290 294 296 300 296 288 281 282 278 263
183 188 184 233 202 172 139 357 161 156 169 158 142 122 97 123 132 120 132 128 124 140 135 278 277 282 286 295 289 289 289 285 284 289 289 285 288 286 288 286 296 289 293 298